Regional Weather Roundup
Issued by NWS

Home | Current Version | Previous Version | Graphics & Text | Print | Product List | Glossary On
Versions: 1 2 3 4 5 6 7 8 9 10 11 12 13 14 15 16 17 18 19 20 21 22 23 24 25 26 27 28 29 30 31 32 33 34 35 36 37 38 39 40 41 42 43 44 45 46 47 48 49 50
000
ASUS45 KBOU 261907
RWRCO

WEATHER ROUNDUP FOR COLORADO
NATIONAL WEATHER SERVICE DENVER/BOULDER CO
100 PM MDT THU MAY 26 2016

NOTE: "FAIR" INDICATES FEW OR NO CLOUDS BELOW 12000 FEET WITH NO
SIGNIFICANT WEATHER AND/OR OBSTRUCTIONS TO VISIBILITY.

COZ001>005-013-030-031-262000-
...NORTHWEST COLORADO...

CITY           SKY/WX    TMP DP  RH WIND       PRES   REMARKS
CRAIG          FAIR      62  34  35 VRB3      29.96F
HAYDEN         FAIR      54  36  50 SW12      29.97F
MEEKER         FAIR      63  33  32 NE12G21   29.94F
MOUNT WERNER   NOT AVBL
STEAMBOAT SPGS FAIR      61  36  40 SW16G26   29.94S
WALDEN         FAIR      55  18  22 NW6       30.00F
$$

COZ006>008-011-262000-
...WEST CENTRAL VALLEYS...

CITY           SKY/WX    TMP DP  RH WIND       PRES   REMARKS
GRAND JUNCTION FAIR      70  19  14 CALM      29.85F
MONTROSE       PTSUNNY   60  26  27 S23G30    29.95R
EAGLE          MOSUNNY   66  19  16 NE12      29.92F
RIFLE          FAIR      67  21  17 S5        29.88F
DELTA          NOT AVBL
NUCLA          CLOUDY    61  23  23 SE20      29.96R
$$

COZ017>023-064>068-262000-
...SOUTHWEST COLORADO...

CITY           SKY/WX    TMP DP  RH WIND       PRES   REMARKS
DURANGO        CLOUDY    56  27  32 NW10      29.97F THUNDER
CORTEZ         PTSUNNY   64  19  17 W10       29.92F
PAGOSA SPRINGS FAIR      56  26  31 W18G25    30.00R
TELLURIDE      CLOUDY    46  23  39 SE13      30.07S THUNDER
WOLF CREEK PAS TSTM      32  23  69 SW15G25   30.16S WCI  22
$$

COZ009-010-012-014-032>034-037-058>063-262000-
...CENTRAL COLORADO...

CITY           SKY/WX    TMP DP  RH WIND       PRES   REMARKS
ASPEN          FAIR      60  18  19 SW6       29.95F
BUENA VISTA    FAIR      57  15  19 SW16      29.97F
COPPER MTN     NOT AVBL
BERTHOUD PASS  TSTM      27  16  63 N9G20     30.17F WCI  17
COTTONWOOD PAS CLOUDY    48  21  34 S20G28    30.07S
GUNNISON       FAIR      57  19  23 SW12G21   29.99S
KREMMLING      FAIR      63  10  13 CALM      29.94F
LEADVILLE      FAIR      44  18  35 VRB7G16   30.06S
MONARCH PASS   LGT SNOW  30  27  86 NW13G21   30.25F VSB 1   WCI  20
SALIDA         PTSUNNY   57  26  30 W23G29    30.03R
SUNLIGHT       CLOUDY    41  19  42 NW5       30.15S
WILKERSON PASS TSTM      36  27  69 CALM      30.15S
$$

COZ069>075-262000-
...SAN LUIS VALLEY/SANGRE DE CRISTO MOUNTAINS...

CITY           SKY/WX    TMP DP  RH WIND       PRES   REMARKS
ALAMOSA        PTSUNNY   58  24  27 W21G26    29.92F
LA VETA PASS   PTSUNNY   41  36  81 NE15G23   30.08F THUNDER
SAGUACHE       CLOUDY    55  23  28 NW16      29.98S
$$

COZ035-036-038>040-262000-
...NORTHERN COLORADO FRONT RANGE...

CITY           SKY/WX    TMP DP  RH WIND       PRES   REMARKS
DENVER INTL AP PTSUNNY   63  45  51 E12       29.90F THUNDER
DMNS CITY PARK   N/A     62  42  47 N13       29.90F
AURORA         PTSUNNY   64  47  54 E12       29.90F
FRONT RANGE AP CLOUDY    64  45  48 E10       29.92F
ERIE MUNI ARPT FAIR      63  44  49 E7        29.92S
BOULDER MUN AP CLOUDY    61  41  48 N3        29.91F
CENTENNIAL     CLOUDY    62  42  47 N12       29.90F THUNDER
BROOMFIELD     PTSUNNY   61  43  51 W9        29.94F
FORT COLLINS   PTSUNNY   54  41  62 E17       29.94R THUNDER
LONGMONT       CLOUDY    65  44  46 CALM      29.94S
$$

COZ041-046-047-076>085-087-088-262000-
...PIKES PEAK/PALMER DIVIDE AND SOUTHERN FOOTHILLS...

CITY           SKY/WX    TMP DP  RH WIND       PRES   REMARKS
COLO. SPRINGS  PTSUNNY   65  41  41 E10       29.90F
A. F. ACADEMY  CLOUDY    61  37  41 SE6       29.91F
SCHRIEVER AFB  NOT AVBL
ELLICOTT       FAIR     N/A N/A N/A E16G28    29.88F
FALCON         PTSUNNY   66  40  38 NE10G18   29.94F
FORT CARSON    PTSUNNY   66  44  44 SE10      29.87F
LIMON          FAIR      67  44  43 E14G22    29.89F
MONUMENT HILL  FAIR      57  41  54 E12       29.95F
TRINIDAD       FAIR      70  38  31 E13       29.84F
$$

COZ042>045-048>051-090-091-262000-
...NORTHEAST COLORADO...

CITY           SKY/WX    TMP DP  RH WIND       PRES   REMARKS
GREELEY ARPT   CLOUDY    61  39  44 NE6       29.92F
AKRON          FAIR      70  45  40 E18G25    29.90F
BURLINGTON     PTSUNNY   73  50  44 E18G28    29.84F
WRAY           NOT AVBL
STERLING       CLOUDY    70  43  37 N12       29.89F
HOLYOKE        NOT AVBL
FORT MORGAN    CLOUDY    69  39  34 NE12G24   29.90F
$$

COZ086-089-092>099-262000-
...SOUTHEAST COLORADO...

CITY           SKY/WX    TMP DP  RH WIND       PRES   REMARKS
PUEBLO         PTSUNNY   73  46  38 NE5       29.82F
LA JUNTA       FAIR      76  51  41 MISG      29.78F
LAMAR          FAIR      76  56  49 NE14G21   29.76F
SPRINGFIELD      N/A     74  50  42 NE10G18   29.79F
$$



USA.gov is the U.S. government's official web portal to all federal, state and local government web resources and services.